sat.trackr.live / text

‹ back to catalog

STARLINK-11268 [DTC]

NORAD 61055 · 2024-164F

PAYLOAD ACTIVE UNKNOWN

§ Identity

Operator
Country
US
Launch date
2024-09-13
Launch site
AFWTR
Launch vehicle
Mass (kg)
RCS (m²)

Purposes: comms

External: N2YO · Heavens-Above · Gunter

§ Orbital elements

Epoch: 2026-05-24T21:49:08.984064Z

Period
91.74 min
Inclination
53.1595°
Eccentricity
0.0001198
Mean motion
15.69716314 rev/d
Perigee alt
358.9 km
Apogee alt
360.5 km
Semi-major
6,737.8 km
B*
-8.5800e-6
RAAN
295.2673°
Arg perigee
73.0791°
Mean anomaly
287.0358°
Rev number
9,739

§ Raw data

STARLINK-11268 [DTC]1 61055U 24164F   26144.90913176 -.00001628  00000+0 -85800-5 0  99912 61055  53.1595 295.2673 0001198  73.0791 287.0358 15.69716314 97391

JSON: /api/v1/satellites/61055 · /tle

For live sub-satellite position, see the globe view (requires WebGL).

§ Visibility from observer

Set your observer location to see the next 7 days of passes ≥ 10°. The values pass through the URL so the page stays shareable.

No JS? Fill the form by hand. The geolocation button needs JavaScript.